Home > Weather > Managua > Past weeks

Flag for Nicaragua Weather for the Past 2 Weeks in Managua, Nicaragua

Now
93 °F

Partly sunny.


Feels Like: 105 °F
Forecast: N/A
Wind: 5 mph from Northwest

Location: Managua A. C. Sandino

Current Time: May 2, 2016 at 5:41:23 PM

Latest Report: May 2, 2016 at 5:00 PM


Visibility: N/A

Pressure: 29.68 "Hg

Humidity: 56%

Dew Point: 75 °F

Location of ManaguaLocation

Historic Weather in Managua — Graph

°F

Managua Temperature Yesterday

Maximum temperature yesterday: 97 °F (at 1:00 PM)
Minimum temperature yesterday: 79 °F (at 11:00 PM)
Average temperature yesterday: 87 °F

High & Low Weather Summary for the Past Weeks

 TemperatureHumidityPressure
High100 °F (Apr 24, 3:00 PM)94% (Apr 27, 6:00 AM)29.92 "Hg (Apr 27, 6:00 AM)
Low75 °F (Apr 27, 6:00 AM)34% (Apr 19, 1:00 PM)29.65 "Hg (Apr 25, 4:00 PM)
Average88 °F61%29.79 "Hg
* Reported Apr 17 4:00 PM — May 2 4:00 PM, Managua, Weather by CustomWeather, © 2016

Note: Actual official high and low records may vary slightly from our data, if they occured in-between our weather recording intervals... More about our weather records

Advertising

Managua Weather History for the Previous 24 Hours

Scroll right to see more
 ConditionsComfort  
Time TempWeatherWind HumidityBarometerVisibility
4:00 PM
Mon, May 2
95 °FThunderstorms. Cloudy.3 mph50%29.71 "HgN/A
3:00 PM97 °FScattered clouds.5 mph42%29.71 "HgN/A
2:00 PM95 °FScattered clouds.9 mph44%29.74 "HgN/A
1:00 PM95 °FScattered clouds.12 mph44%29.77 "HgN/A
12:00 PM93 °FScattered clouds.9 mph47%29.83 "HgN/A
11:00 AM91 °FScattered clouds.12 mph56%29.83 "HgN/A
10:00 AM90 °FScattered clouds.9 mph63%29.86 "HgN/A
9:00 AM88 °FScattered clouds.16 mph66%29.86 "HgN/A
8:00 AM84 °FScattered clouds.5 mph74%29.86 "Hg6 mi
7:00 AM81 °FPartly sunny.No wind89%29.80 "Hg5 mi
6:00 AM79 °FFog.5 mph94%29.77 "Hg3 mi
5:00 AM79 °FFog.5 mph94%29.77 "Hg6 mi
1:00 AM79 °FPassing clouds.5 mph89%29.77 "HgN/A
12:00 AM81 °FThunderstorms. Passing clouds.7 mph89%29.80 "Hg5 mi
11:00 PM
Sun, May 1
79 °FPassing clouds.14 mph94%29.80 "HgN/A
10:00 PM81 °FLight rain. Passing clouds.14 mph89%29.80 "Hg4 mi
9:00 PM81 °FWarm.No wind84%29.77 "HgN/A
8:00 PM81 °FPassing clouds.7 mph89%29.77 "HgN/A
7:00 PM82 °FThunderstorms. Passing clouds.7 mph84%29.74 "Hg6 mi
5:00 PM95 °FScattered clouds.14 mph50%29.68 "HgN/A
Weather by CustomWeather, © 2016

See weather overviewHow to use our weather pages